{"data":{"norad_id":62733,"intl_designator":"2025-013E","name":"2025-013E","alt_names":[],"object_type":"PAYLOAD","status":"ACTIVE","operator":null,"country":"PRC","launch_date":"2025-01-20","launch_site_code":"JSC","launch_vehicle":null,"mission":null,"orbit_class":"UNKNOWN","rcs_meters":null,"size_class":null,"mass_kg":null,"dimensions":null,"purposes":[],"wikipedia_slug":null,"has_3d_model":false,"image_url":null,"decayed_at":null,"tle_current":{"epoch":"2026-09-22T22:36:24.885216Z","epoch_age_seconds":108605,"freshness":"FRESH","line1":"1 62733U 25013E   26265.94195469  .00002427  00000+0  14673-3 0  9998","line2":"2 62733  97.6648  75.4650 0009512  49.4521 310.7536 15.11596960 91987","mean_motion":15.1159696,"eccentricity":0.0009512,"inclination_deg":97.6648,"raan_deg":75.465,"arg_perigee_deg":49.4521,"mean_anomaly_deg":310.7536,"bstar":0.00014673,"rev_number":9198,"period_min":95.263488754304,"perigee_km":524.75699148666,"apogee_km":537.90156012976,"semimajor_km":6909.4662758082,"source":"CELESTRAK","updated_at":"2026-09-23T09:00:21.592692Z"}}}